Location: Bernay
(48.6766°N, 2.9386°E)
Time: 01:55:42
(UTC+00:00)

SJ 16-02 - Pass Details

Date: 30 April 2026
Orbit: 582 x 592 km, 75.0° (Epoch: 19 May)

Event Time Altitude Azimuth Distance (km) Brightness Sun altitude
Rises 20:54:21 0° 334° (NNW) 2,820 6.2 -15.9°
Reaches altitude 10° 20:56:37 10° 330° (NNW) 1,914 5.1 -16.2°
Maximum altitude 21:00:44 52° 254° (WSW) 734 1.9 -16.6°
Enters shadow 21:03:14 22° 187° (S) 1,292 2.6 -16.9°
